IGO54TM VOMM-VOHS

Flight info

Callsign IGO54TM
Flight time 0h 49m
Altitude 32000
Route KAMGU2A KAMGU W20 LEDOB LEDOB6
Aircraft A21N/M-SDE2E3FGHIRWXY/LB1

Departure

Time 2026-04-26 13:34
Airport Chennai International Airport (VOMM)

Arrival

Time 2026-04-26 14:23
Airport Rajiv Gandhi International Airport (VOHS)
Time Latitude Longitude Altitude Speed Heading
2026-04-26 13:07 12.98462 80.16601 56 ft 0 kts 159°
2026-04-26 13:25 12.98467 80.16599 49 ft 2 kts 159°
2026-04-26 13:25 12.98483 80.16594 52 ft 2 kts 166°
2026-04-26 13:25 12.98499 80.16589 52 ft 2 kts 176°
2026-04-26 13:26 12.98516 80.16589 52 ft 2 kts 208°
2026-04-26 13:26 12.98529 80.16600 48 ft 2 kts 245°
2026-04-26 13:26 12.98534 80.16611 50 ft 1 kts 249°
2026-04-26 13:26 12.98535 80.16613 51 ft 0 kts 249°
2026-04-26 13:29 12.98534 80.16611 50 ft 2 kts 249°
2026-04-26 13:29 12.98524 80.16585 50 ft 6 kts 249°
2026-04-26 13:30 12.98505 80.16535 54 ft 9 kts 248°
2026-04-26 13:30 12.98479 80.16466 53 ft 11 kts 251°
2026-04-26 13:30 12.98449 80.16382 51 ft 14 kts 248°
2026-04-26 13:30 12.98413 80.16285 51 ft 16 kts 250°
2026-04-26 13:31 12.98375 80.16175 54 ft 17 kts 249°
2026-04-26 13:31 12.98330 80.16054 51 ft 19 kts 249°
2026-04-26 13:31 12.98292 80.15959 54 ft 14 kts 247°
2026-04-26 13:31 12.98301 80.15863 50 ft 15 kts 286°
2026-04-26 13:32 12.98333 80.15754 53 ft 17 kts 287°
2026-04-26 13:32 12.98366 80.15628 56 ft 19 kts 283°
2026-04-26 13:32 12.98401 80.15491 55 ft 20 kts 287°
2026-04-26 13:32 12.98485 80.15468 52 ft 13 kts 64°
2026-04-26 13:33 12.98497 80.15510 55 ft 0 kts 71°
2026-04-26 13:33 12.98497 80.15511 55 ft 7 kts 71°
2026-04-26 13:33 12.98616 80.15836 55 ft 90 kts 70°
2026-04-26 13:33 12.98936 80.16681 53 ft 157 kts 70°
2026-04-26 13:34 12.99375 80.17879 238 ft 194 kts 73°
2026-04-26 13:34 12.99860 80.19181 1023 ft 190 kts 74°
2026-04-26 13:34 13.00493 80.20371 1928 ft 193 kts 49°
2026-04-26 13:34 13.01222 80.20953 2220 ft 209 kts 26°
2026-04-26 13:35 13.03244 80.21067 2720 ft 236 kts 344°
2026-04-26 13:35 13.04898 80.20524 2982 ft 260 kts 339°
2026-04-26 13:35 13.06660 80.19857 3393 ft 279 kts 339°
2026-04-26 13:35 13.08500 80.19182 4241 ft 278 kts 341°
2026-04-26 13:36 13.10322 80.18547 5167 ft 276 kts 342°
2026-04-26 13:36 13.12159 80.17931 5695 ft 281 kts 343°
2026-04-26 13:36 13.14018 80.17321 5786 ft 280 kts 344°
2026-04-26 13:36 13.15890 80.16715 5974 ft 283 kts 345°
2026-04-26 13:37 13.17769 80.16104 6722 ft 280 kts 345°
2026-04-26 13:37 13.19618 80.15501 7592 ft 279 kts 346°
2026-04-26 13:37 13.21521 80.15071 8335 ft 280 kts 356°
2026-04-26 13:37 13.23462 80.14945 9154 ft 279 kts
2026-04-26 13:38 13.25409 80.14843 9957 ft 281 kts
2026-04-26 13:38 13.27436 80.14730 10278 ft 301 kts 359°
2026-04-26 13:38 13.29625 80.14584 10464 ft 324 kts 356°
2026-04-26 13:38 13.31894 80.14156 10822 ft 339 kts 348°
2026-04-26 13:39 13.34115 80.13388 11417 ft 345 kts 340°
2026-04-26 13:39 13.36375 80.12390 12057 ft 350 kts 339°
2026-04-26 13:39 13.38628 80.11408 12699 ft 353 kts 339°
2026-04-26 13:39 13.40894 80.10427 13359 ft 356 kts 339°
2026-04-26 13:40 13.43199 80.09432 13947 ft 360 kts 339°
2026-04-26 13:40 13.45520 80.08429 14499 ft 363 kts 339°
2026-04-26 13:40 13.47864 80.07414 15047 ft 367 kts 339°
2026-04-26 13:40 13.50233 80.06389 15574 ft 371 kts 339°
2026-04-26 13:41 13.52625 80.05355 16102 ft 374 kts 338°
2026-04-26 13:41 13.55041 80.04307 16623 ft 378 kts 338°
2026-04-26 13:41 13.57482 80.03249 17107 ft 382 kts 338°
2026-04-26 13:41 13.59944 80.02181 17602 ft 386 kts 337°
2026-04-26 13:42 13.62402 80.01113 18063 ft 390 kts 337°
2026-04-26 13:42 13.64916 80.00020 18486 ft 393 kts 337°
2026-04-26 13:42 13.67448 79.98919 18916 ft 396 kts 337°
2026-04-26 13:42 13.69995 79.97810 19333 ft 399 kts 337°
2026-04-26 13:43 13.72514 79.96714 19739 ft 402 kts 337°
2026-04-26 13:43 13.75107 79.95585 20158 ft 405 kts 337°
2026-04-26 13:43 13.77712 79.94449 20555 ft 408 kts 337°
2026-04-26 13:43 13.80342 79.93304 20968 ft 411 kts 337°
2026-04-26 13:44 13.82983 79.92153 21357 ft 415 kts 337°
2026-04-26 13:44 13.85656 79.90988 21758 ft 418 kts 336°
2026-04-26 13:44 13.88342 79.89817 22162 ft 420 kts 336°
2026-04-26 13:44 13.91047 79.88639 22547 ft 424 kts 336°
2026-04-26 13:45 13.93771 79.87451 22927 ft 427 kts 336°
2026-04-26 13:45 13.96512 79.86255 23305 ft 429 kts 336°
2026-04-26 13:45 13.99271 79.85052 23631 ft 432 kts 336°
2026-04-26 13:45 14.02033 79.83849 23996 ft 433 kts 336°
2026-04-26 13:46 14.04813 79.82636 24367 ft 434 kts 336°
2026-04-26 13:46 14.07597 79.81423 24691 ft 435 kts 336°
2026-04-26 13:46 14.10396 79.80203 25023 ft 437 kts 335°
2026-04-26 13:46 14.13226 79.78968 25350 ft 439 kts 335°
2026-04-26 13:47 14.16042 79.77738 25674 ft 440 kts 335°
2026-04-26 13:47 14.18876 79.76502 25990 ft 442 kts 335°
2026-04-26 13:47 14.21677 79.75278 26290 ft 443 kts 335°
2026-04-26 13:47 14.24552 79.74022 26594 ft 445 kts 335°
2026-04-26 13:48 14.27418 79.72769 26886 ft 446 kts 335°
2026-04-26 13:48 14.30280 79.71516 27171 ft 448 kts 335°
2026-04-26 13:48 14.32513 79.70539 27373 ft 450 kts 334°
2026-04-26 13:48 14.35401 79.69273 27652 ft 451 kts 335°
2026-04-26 13:49 14.38290 79.68006 27919 ft 453 kts 334°
2026-04-26 13:49 14.41201 79.66730 28163 ft 455 kts 334°
2026-04-26 13:49 14.44119 79.65452 28431 ft 457 kts 334°
2026-04-26 13:49 14.47041 79.64172 28680 ft 458 kts 334°
2026-04-26 13:50 14.49981 79.62884 28921 ft 460 kts 334°
2026-04-26 13:50 14.52867 79.61619 29145 ft 462 kts 334°
2026-04-26 13:50 14.55911 79.60284 29377 ft 464 kts 334°
2026-04-26 13:50 14.58876 79.58984 29615 ft 465 kts 334°
2026-04-26 13:51 14.61764 79.57717 29824 ft 467 kts 334°
2026-04-26 13:51 14.64791 79.56389 30039 ft 469 kts 334°
2026-04-26 13:51 14.67789 79.55073 30247 ft 470 kts 334°
2026-04-26 13:51 14.70818 79.53744 30464 ft 472 kts 334°
2026-04-26 13:52 14.73847 79.52414 30695 ft 473 kts 334°
2026-04-26 13:52 14.76872 79.51086 30942 ft 473 kts 334°
2026-04-26 13:52 14.79904 79.49754 31244 ft 473 kts 334°
2026-04-26 13:52 14.82932 79.48425 31574 ft 471 kts 333°
2026-04-26 13:53 14.85937 79.47104 31744 ft 470 kts 333°
2026-04-26 13:53 14.91949 79.44459 31765 ft 468 kts 333°
2026-04-26 13:54 14.97949 79.41817 31763 ft 468 kts 333°
2026-04-26 13:54 15.03924 79.39149 31768 ft 468 kts 333°
2026-04-26 13:55 15.10910 79.36009 31767 ft 468 kts 333°
2026-04-26 13:56 15.20852 79.31546 31773 ft 468 kts 333°
2026-04-26 13:56 15.26839 79.28858 31779 ft 469 kts 333°
2026-04-26 13:57 15.32826 79.26170 31785 ft 469 kts 333°
2026-04-26 13:57 15.38816 79.23478 31787 ft 469 kts 333°
2026-04-26 13:58 15.44802 79.20786 31786 ft 469 kts 333°
2026-04-26 13:58 15.50799 79.18096 31795 ft 469 kts 333°
2026-04-26 13:59 15.56799 79.15422 31800 ft 470 kts 333°
2026-04-26 13:59 15.62817 79.12737 31805 ft 470 kts 333°
2026-04-26 14:00 15.74824 79.07372 31510 ft 469 kts 333°
2026-04-26 14:00 15.76817 79.06480 31354 ft 470 kts 333°
2026-04-26 14:01 15.80844 79.04677 30855 ft 471 kts 333°
2026-04-26 14:01 15.83854 79.03329 30315 ft 470 kts 333°
2026-04-26 14:01 15.86854 79.01987 29746 ft 466 kts 333°
2026-04-26 14:01 15.89807 79.00664 29167 ft 459 kts 333°
2026-04-26 14:02 15.92731 78.99354 28650 ft 452 kts 334°
2026-04-26 14:02 15.95591 78.98071 28126 ft 445 kts 334°
2026-04-26 14:02 15.98414 78.96805 27607 ft 438 kts 334°
2026-04-26 14:02 16.01197 78.95555 27099 ft 432 kts 334°
2026-04-26 14:03 16.03937 78.94325 26596 ft 426 kts 334°
2026-04-26 14:03 16.06643 78.93111 26099 ft 420 kts 334°
2026-04-26 14:03 16.09309 78.91913 25608 ft 415 kts 334°
2026-04-26 14:03 16.11944 78.90730 25115 ft 410 kts 334°
2026-04-26 14:04 16.14521 78.89572 24639 ft 405 kts 334°
2026-04-26 14:04 16.17127 78.88402 24150 ft 401 kts 334°
2026-04-26 14:04 16.19681 78.87254 23674 ft 397 kts 334°
2026-04-26 14:04 16.22178 78.86132 23156 ft 393 kts 334°
2026-04-26 14:05 16.24693 78.85000 22668 ft 387 kts 334°
2026-04-26 14:05 16.27157 78.83891 22210 ft 382 kts 334°
2026-04-26 14:05 16.27415 78.83775 22159 ft 381 kts 334°
2026-04-26 14:05 16.30045 78.82591 21655 ft 375 kts 335°
2026-04-26 14:06 16.32425 78.81520 21198 ft 373 kts 335°
2026-04-26 14:06 16.34808 78.80446 20737 ft 372 kts 335°
2026-04-26 14:06 16.37206 78.79366 20279 ft 369 kts 335°
2026-04-26 14:06 16.39560 78.78305 19825 ft 365 kts 335°
2026-04-26 14:07 16.41799 78.77296 19386 ft 363 kts 335°
2026-04-26 14:07 16.43453 78.76548 19083 ft 362 kts 335°
2026-04-26 14:07 16.45716 78.75527 18636 ft 360 kts 336°
2026-04-26 14:07 16.48049 78.74474 18179 ft 356 kts 336°
2026-04-26 14:08 16.50319 78.73450 17698 ft 353 kts 336°
2026-04-26 14:08 16.52527 78.72454 17271 ft 349 kts 336°
2026-04-26 14:08 16.54754 78.71450 16838 ft 349 kts 336°
2026-04-26 14:08 16.56982 78.70446 16395 ft 345 kts 336°
2026-04-26 14:09 16.59178 78.69455 15973 ft 342 kts 336°
2026-04-26 14:09 16.61358 78.68472 15548 ft 341 kts 336°
2026-04-26 14:09 16.63534 78.67489 14939 ft 344 kts 336°
2026-04-26 14:09 16.65755 78.66483 14381 ft 351 kts 337°
2026-04-26 14:10 16.68033 78.65451 14115 ft 359 kts 337°
2026-04-26 14:10 16.70327 78.64412 13783 ft 360 kts 337°
2026-04-26 14:10 16.72620 78.63374 13315 ft 357 kts 337°
2026-04-26 14:10 16.74881 78.62350 12874 ft 351 kts 337°
2026-04-26 14:11 16.79292 78.60353 12019 ft 340 kts 337°
2026-04-26 14:11 16.81444 78.59378 11603 ft 335 kts 337°
2026-04-26 14:11 16.83566 78.58416 11187 ft 330 kts 337°
2026-04-26 14:12 16.85662 78.57465 10779 ft 326 kts 337°
2026-04-26 14:12 16.87736 78.56524 10376 ft 322 kts 337°
2026-04-26 14:12 16.89724 78.55621 10216 ft 310 kts 337°
2026-04-26 14:12 16.91688 78.54729 10074 ft 297 kts 337°
2026-04-26 14:13 16.95366 78.53058 9731 ft 294 kts 337°
2026-04-26 14:13 16.97248 78.52203 9531 ft 296 kts 337°
2026-04-26 14:13 16.98866 78.51516 9241 ft 296 kts 343°
2026-04-26 14:14 17.00207 78.51154 8922 ft 297 kts 351°
2026-04-26 14:14 17.02249 78.50979 8612 ft 291 kts
2026-04-26 14:14 17.04907 78.50950 8140 ft 286 kts 359°
2026-04-26 14:14 17.06240 78.50925 7904 ft 284 kts 359°
2026-04-26 14:15 17.08205 78.50882 7545 ft 281 kts 359°
2026-04-26 14:15 17.10146 78.50839 7193 ft 278 kts 359°
2026-04-26 14:15 17.12040 78.51059 6957 ft 269 kts 20°
2026-04-26 14:15 17.13581 78.52062 6711 ft 261 kts 48°
2026-04-26 14:16 17.14447 78.53690 6496 ft 259 kts 78°
2026-04-26 14:16 17.14579 78.55588 6298 ft 265 kts 90°
2026-04-26 14:16 17.14600 78.57501 5960 ft 264 kts 90°
2026-04-26 14:16 17.14631 78.59408 5673 ft 259 kts 89°
2026-04-26 14:17 17.14668 78.61275 5593 ft 256 kts 89°
2026-04-26 14:17 17.14708 78.63148 5588 ft 258 kts 89°
2026-04-26 14:17 17.14746 78.65019 5442 ft 258 kts 89°
2026-04-26 14:17 17.15095 78.66840 5166 ft 257 kts 64°
2026-04-26 14:18 17.16224 78.68276 4797 ft 259 kts 34°
2026-04-26 14:18 17.17879 78.68922 4591 ft 258 kts
2026-04-26 14:18 17.19643 78.68589 4587 ft 263 kts 332°
2026-04-26 14:18 17.21034 78.67380 4581 ft 261 kts 302°
2026-04-26 14:19 17.21899 78.65699 4585 ft 261 kts 295°
2026-04-26 14:19 17.22648 78.63994 4572 ft 260 kts 285°
2026-04-26 14:19 17.23008 78.62162 4549 ft 258 kts 273°
2026-04-26 14:19 17.23094 78.60293 4460 ft 249 kts 268°
2026-04-26 14:20 17.23087 78.58525 4354 ft 236 kts 267°
2026-04-26 14:20 17.23068 78.56866 4122 ft 231 kts 267°
2026-04-26 14:20 17.23047 78.55209 3822 ft 215 kts 267°
2026-04-26 14:20 17.23027 78.53699 3550 ft 200 kts 266°
2026-04-26 14:21 17.23008 78.52285 3303 ft 187 kts 266°
2026-04-26 14:21 17.22992 78.50979 3113 ft 171 kts 266°
2026-04-26 14:21 17.22974 78.49788 2880 ft 157 kts 266°
2026-04-26 14:21 17.22960 78.48688 2705 ft 152 kts 266°
2026-04-26 14:22 17.22942 78.47549 2501 ft 158 kts 266°
2026-04-26 14:22 17.22929 78.46404 2307 ft 157 kts 266°
2026-04-26 14:22 17.22913 78.45258 2089 ft 153 kts 266°
2026-04-26 14:22 17.22895 78.44147 2004 ft 154 kts 266°
2026-04-26 14:23 17.22878 78.43081 1981 ft 126 kts 269°
2026-04-26 14:23 17.22862 78.42353 1979 ft 74 kts 267°
2026-04-26 14:23 17.22864 78.42008 1980 ft 41 kts 269°
2026-04-26 14:23 17.22855 78.41719 1981 ft 39 kts 265°
2026-04-26 14:24 17.22850 78.41431 1983 ft 38 kts 274°
2026-04-26 14:24 17.22945 78.41243 1980 ft 15 kts 334°
2026-04-26 14:24 17.23034 78.41255 1981 ft 13 kts 35°
2026-04-26 14:24 17.23060 78.41346 1979 ft 14 kts 90°
2026-04-26 14:25 17.23060 78.41458 1979 ft 16 kts 89°
2026-04-26 14:25 17.23062 78.41582 1980 ft 17 kts 89°
2026-04-26 14:25 17.23061 78.41714 1980 ft 19 kts 91°
2026-04-26 14:25 17.23062 78.41861 1979 ft 21 kts 91°
2026-04-26 14:26 17.23062 78.42017 1980 ft 22 kts 90°
2026-04-26 14:26 17.23071 78.42178 1984 ft 22 kts 81°
2026-04-26 14:26 17.23167 78.42234 1980 ft 0 kts 355°
2026-04-26 14:26 17.23176 78.42233 1982 ft 3 kts 355°
2026-04-26 14:27 17.23210 78.42232 1983 ft 6 kts 359°
2026-04-26 14:27 17.23264 78.42244 1982 ft 9 kts 13°
2026-04-26 14:27 17.23322 78.42284 1984 ft 11 kts 47°
2026-04-26 14:27 17.23397 78.42316 1983 ft 13 kts
2026-04-26 14:28 17.23463 78.42314 1983 ft 1 kts 359°
2026-04-26 14:28 17.23478 78.42314 1983 ft 4 kts 359°
2026-04-26 14:28 17.23510 78.42321 1982 ft 5 kts 36°
2026-04-26 14:28 17.23516 78.42364 1980 ft 7 kts 95°
2026-04-26 14:29 17.23516 78.42379 1980 ft 2 kts 90°
2026-04-26 14:29 17.23516 78.42395 1980 ft 2 kts 90°
2026-04-26 14:29 17.23516 78.42405 1980 ft 0 kts 90°
2026-04-26 14:29 17.23516 78.42406 1980 ft 0 kts 90°